BX2AEA-13 Weather Reports


Display with metric or nautical units.
time (UTC)temp
F
wind
direction
speed
MPH
gust
MPH
rain 1hr
in
rain 24hr
in
rain mn
in
humidity
%
barometer
mb
20260505092611 85 90 0.0 3.0 0.00 0.23 0.00 49 1008.3
20260505092024 85 0 0.0 3.0 0.00 0.23 0.00 49 1008.4
20260505091437 85 90 0.0 2.0 0.00 0.23 0.00 49 1008.2
20260505090850 85 315 0.0 2.0 0.00 0.23 0.00 49 1008.3
20260505090303 85 45 0.0 2.0 0.00 0.23 0.00 49 1008.3
20260505085716 85 315 0.0 3.0 0.00 0.23 0.00 49 1008.1
20260505085129 86 45 0.0 2.0 0.01 0.23 0.00 49 1008.0
20260505084542 86 90 0.0 2.0 0.01 0.23 0.00 49 1008.0
20260505083955 86 0 0.0 2.0 0.01 0.23 0.00 49 1007.8
20260505083408 86 45 0.0 2.0 0.01 0.23 0.00 49 1007.7
20260505082821 86 270 0.0 1.0 0.01 0.23 0.00 49 1007.8
20260505082234 86 0 0.0 1.0 0.01 0.23 0.00 49 1007.8
20260505081647 86 135 0.0 2.0 0.01 0.23 0.00 49 1007.7
20260505081100 86 135 0.0 2.0 0.01 0.23 0.00 49 1007.9
20260505080513 87 270 0.0 1.0 0.01 0.23 0.00 49 1007.9
20260505075926 87 0 0.0 2.0 0.01 0.23 0.00 49 1007.9
20260505075339 87 90 0.0 2.0 0.00 0.22 0.00 49 1007.9
20260505074752 87 0 0.0 1.0 0.00 0.22 0.00 49 1007.9
20260505074205 87 0 0.0 1.0 0.00 0.22 0.00 49 1008.0
20260505073618 87 0 0.0 1.0 0.00 0.22 0.00 49 1007.9
20260505073031 87 315 0.0 1.0 0.00 0.22 0.00 49 1007.8
20260505072444 87 135 0.0 1.0 0.00 0.22 0.00 48 1008.0
20260505071857 87 315 0.0 2.0 0.00 0.22 0.00 49 1008.0
20260505071310 88 315 0.0 2.0 0.00 0.22 0.00 48 1008.0
20260505070723 88 315 0.0 1.0 0.00 0.22 0.00 48 1008.0
20260505070136 88 315 0.0 1.0 0.00 0.22 0.00 48 1007.9
20260505065549 88 0 0.0 1.0 0.00 0.22 0.00 48 1007.9
20260505065002 88 315 0.0 2.0 0.00 0.22 0.00 48 1008.1
20260505064415 88 135 0.0 2.0 0.00 0.22 0.00 49 1008.1
20260505063828 88 315 0.0 1.0 0.00 0.22 0.00 49 1008.0
20260505063241 88 90 0.0 2.0 0.00 0.22 0.00 49 1008.1
20260505062654 88 315 0.0 2.0 0.00 0.22 0.00 49 1008.1
20260505062107 88 225 0.0 3.0 0.00 0.22 0.00 50 1008.1
20260505061520 88 315 0.0 2.0 0.00 0.22 0.00 49 1008.1
20260505060932 88 315 0.0 1.0 0.00 0.22 0.00 50 1008.2
20260505060345 88 315 0.0 1.0 0.00 0.22 0.00 50 1008.2
20260505055758 88 315 0.0 1.0 0.00 0.22 0.00 51 1008.4
20260505055211 88 0 0.0 1.0 0.00 0.22 0.00 51 1008.4
20260505054624 87 315 0.0 1.0 0.00 0.22 0.00 51 1008.4
20260505054037 87 270 0.0 1.0 0.00 0.22 0.00 51 1008.4
20260505053450 87 270 0.0 1.0 0.00 0.22 0.00 51 1008.5
20260505052903 87 90 0.0 1.0 0.00 0.22 0.00 51 1008.9
20260505052316 87 0 0.0 1.0 0.00 0.22 0.00 51 1008.9
20260505051729 87 270 0.0 1.0 0.00 0.22 0.00 52 1008.9
20260505051142 87 315 0.0 1.0 0.00 0.22 0.00 52 1008.7
20260505050555 87 315 0.0 1.0 0.00 0.22 0.00 52 1009.1
20260505041352 86 0 0.0 0.0 0.00 0.22 0.00 50 1009.8
20260505040805 86 315 0.0 0.0 0.00 0.22 0.00 51 1009.9
20260505040218 86 270 0.0 0.0 0.00 0.22 0.00 50 1009.9
20260505035631 86 315 0.0 0.0 0.00 0.22 0.00 50 1009.9
20260505035044 86 90 0.0 1.0 0.00 0.22 0.00 50 1009.9
20260505034457 86 315 0.0 1.0 0.00 0.22 0.00 50 1010.1
20260505033910 86 45 0.0 1.0 0.00 0.22 0.00 50 1009.9
20260505033323 86 315 0.0 1.0 0.00 0.22 0.00 51 1009.9
20260505032736 86 315 0.0 1.0 0.01 0.22 0.00 51 1010.0
20260505032149 86 90 0.0 1.0 0.01 0.22 0.00 51 1010.0
20260505031602 86 315 0.0 1.0 0.01 0.22 0.00 51 1009.9
20260505031015 86 315 0.0 1.0 0.01 0.22 0.00 51 1009.9
20260505030428 86 315 0.0 1.0 0.01 0.22 0.00 51 1009.9
20260505025841 86 45 0.0 0.0 0.01 0.22 0.00 51 1010.0
20260505025254 86 0 0.0 1.0 0.01 0.22 0.00 50 1010.2
20260505024707 86 90 0.0 1.0 0.02 0.22 0.00 50 1010.2
20260505024120 86 0 0.0 1.0 0.09 0.22 0.00 49 1010.2
20260505023533 86 0 0.0 1.0 0.13 0.22 0.00 49 1010.4
20260505022945 86 270 0.0 0.0 0.18 0.20 0.00 49 1010.7
20260505022358 86 315 0.0 0.0 0.19 0.20 0.00 49 1010.6
20260505021811 86 0 0.0 0.0 0.19 0.20 0.00 49 1010.6
20260505021224 86 225 0.0 0.0 0.20 0.20 0.00 49 1010.6
20260505020637 85 270 0.0 0.0 0.20 0.20 0.00 49 1010.6
20260505020050 85 0 0.0 1.0 0.20 0.20 0.00 49 1010.5
20260505015503 85 0 0.0 1.0 0.20 0.20 0.00 48 1010.5
20260505014916 85 45 0.0 0.0 0.19 0.19 0.00 47 1010.5
20260505014329 85 315 0.0 0.0 0.14 0.14 0.00 47 1010.6
20260505013742 86 315 0.0 0.0 0.09 0.09 0.00 47 1010.5
20260505013155 86 270 0.0 0.0 0.05 0.05 0.00 46 1010.6
20260505012608 86 315 0.0 1.0 0.01 0.01 0.00 46 1010.6
20260505012021 86 270 0.0 1.0 0.01 0.01 0.00 46 1010.7
20260505011434 86 225 0.0 0.0 0.00 0.00 0.00 46 1010.7
20260505010847 86 270 0.0 0.0 0.00 0.00 0.00 46 1010.7
20260505010300 86 270 0.0 0.0 0.00 0.00 0.00 46 1010.6
20260505005713 86 270 0.0 0.0 0.00 0.00 0.00 46 1010.6
20260505005126 86 270 0.0 0.0 0.00 0.00 0.00 46 1010.4
20260505004539 86 270 0.0 0.0 0.00 0.00 0.00 46 1010.4
20260505003952 86 225 0.0 1.0 0.00 0.00 0.00 46 1010.4
20260505003405 86 225 0.0 1.0 0.00 0.00 0.00 46 1010.3
20260505002818 85 270 0.0 1.0 0.00 0.00 0.00 46 1010.2
20260505002231 85 315 0.0 1.0 0.00 0.00 0.00 46 1010.2
20260505001644 85 0 0.0 0.0 0.00 0.00 0.00 46 1010.1
20260505001057 85 0 0.0 1.0 0.00 0.00 0.00 47 1010.1
20260505000510 85 0 0.0 1.0 0.00 0.00 0.00 47 1010.1
20260504235923 85 315 0.0 1.0 0.00 0.00 0.00 47 1010.0
20260504235336 85 0 0.0 1.0 0.00 0.00 0.00 47 1009.8
20260504234749 85 0 0.0 1.0 0.00 0.00 0.00 46 1009.9
20260504234202 85 315 0.0 0.0 0.00 0.00 0.00 47 1009.8
20260504233615 85 0 0.0 0.0 0.00 0.00 0.00 47 1009.8
20260504233028 85 315 0.0 1.0 0.00 0.00 0.00 47 1010.1
20260504232441 85 315 0.0 1.0 0.00 0.00 0.00 47 1010.0
20260504231854 85 270 0.0 0.0 0.00 0.00 0.00 47 1010.1
20260504231307 84 315 0.0 0.0 0.00 0.00 0.00 47 1010.0
20260504230720 84 270 0.0 1.0 0.00 0.00 0.00 47 1009.8
20260504230132 84 270 0.0 1.0 0.00 0.00 0.00 47 1009.8
20260504225545 84 225 0.0 0.0 0.00 0.00 0.00 47 1009.7
20260504224959 84 0 0.0 0.0 0.00 0.00 0.00 47 1009.6
20260504224411 84 315 0.0 1.0 0.00 0.00 0.00 47 1009.4
20260504223824 84 315 0.0 1.0 0.00 0.00 0.00 47 1009.4
20260504223237 84 270 0.0 0.0 0.00 0.00 0.00 46 1009.6
20260504222650 84 270 0.0 0.0 0.00 0.00 0.00 46 1009.4
20260504222103 84 270 0.0 0.0 0.00 0.00 0.00 46 1009.5
20260504221516 84 270 0.0 0.0 0.00 0.00 0.00 46 1009.4
20260504220929 84 270 0.0 0.0 0.00 0.00 0.00 46 1009.3
20260504220342 84 270 0.0 0.0 0.00 0.00 0.00 45 1009.3
20260504215755 84 315 0.0 0.0 0.00 0.00 0.00 45 1009.1
20260504215208 84 315 0.0 0.0 0.00 0.00 0.00 45 1009.1
20260504214621 84 315 0.0 0.0 0.00 0.00 0.00 45 1009.2
20260504214034 84 315 0.0 0.0 0.00 0.00 0.00 45 1009.2
20260504213447 84 315 0.0 0.0 0.00 0.00 0.00 45 1009.1
20260504212900 84 315 0.0 1.0 0.00 0.00 0.00 45 1009.0
20260504212313 84 315 0.0 1.0 0.00 0.00 0.00 45 1009.0
20260504211726 84 0 0.0 0.0 0.00 0.00 0.00 45 1008.8
20260504211139 84 0 0.0 0.0 0.00 0.00 0.00 44 1008.9
20260504210552 84 270 0.0 0.0 0.00 0.00 0.00 44 1009.1
20260504210005 84 0 0.0 0.0 0.00 0.00 0.00 44 1008.9
20260504205418 84 315 0.0 0.0 0.00 0.00 0.00 44 1009.0
20260504204831 84 315 0.0 0.0 0.00 0.00 0.00 44 1009.0
20260504204244 84 315 0.0 0.0 0.00 0.00 0.00 44 1008.9
20260504203657 84 270 0.0 0.0 0.00 0.00 0.00 44 1008.9
20260504203110 84 270 0.0 0.0 0.00 0.00 0.00 44 1008.7
20260504202523 84 270 0.0 0.0 0.00 0.00 0.00 44 1008.8
20260504201936 84 270 0.0 0.0 0.00 0.00 0.00 44 1008.8
20260504201349 84 270 0.0 0.0 0.00 0.00 0.00 44 1008.7
20260504200802 84 270 0.0 0.0 0.00 0.00 0.00 43 1008.6
20260504200215 84 270 0.0 0.0 0.00 0.00 0.00 43 1008.6
20260504195628 84 270 0.0 0.0 0.00 0.00 0.00 43 1008.6
20260504195041 84 225 0.0 0.0 0.00 0.00 0.00 43 1008.5
20260504194453 84 225 0.0 0.0 0.00 0.00 0.00 43 1008.5
20260504193907 84 225 0.0 0.0 0.00 0.00 0.00 43 1008.6
20260504193319 84 225 0.0 0.0 0.00 0.00 0.00 43 1008.6
20260504192732 84 225 0.0 1.0 0.00 0.00 0.00 42 1008.5
20260504192145 84 225 0.0 1.0 0.00 0.00 0.00 42 1008.6
20260504191558 84 225 0.0 0.0 0.00 0.00 0.00 42 1008.5
20260504191011 84 270 0.0 0.0 0.00 0.00 0.00 42 1008.6
20260504190424 84 315 0.0 0.0 0.00 0.00 0.00 42 1008.4
20260504185837 84 270 0.0 0.0 0.00 0.00 0.00 42 1008.4
20260504185250 84 315 0.0 0.0 0.00 0.00 0.00 42 1008.5
20260504184703 85 270 0.0 0.0 0.00 0.00 0.00 42 1008.5
20260504184116 85 0 0.0 0.0 0.00 0.00 0.00 41 1008.4
20260504183529 85 315 0.0 0.0 0.00 0.00 0.00 41 1008.5
20260504182942 85 315 0.0 0.0 0.00 0.00 0.00 41 1008.8
20260504182355 85 315 0.0 0.0 0.00 0.00 0.00 41 1008.8
20260504181808 85 45 0.0 0.0 0.00 0.00 0.00 41 1008.8
20260504181221 85 270 0.0 0.0 0.00 0.00 0.00 41 1009.0
20260504180634 85 315 0.0 0.0 0.00 0.00 0.00 40 1009.1
20260504180047 85 315 0.0 0.0 0.00 0.00 0.00 40 1009.0
20260504175500 85 315 0.0 0.0 0.00 0.00 0.00 40 1009.0
20260504174913 85 0 0.0 1.0 0.00 0.00 0.00 40 1009.0
20260504174326 85 270 0.0 1.0 0.00 0.00 0.00 40 1009.1
20260504173739 85 270 0.0 1.0 0.00 0.00 0.00 40 1009.2
20260504173152 85 270 0.0 0.0 0.00 0.00 0.00 39 1009.3
20260504172605 85 315 0.0 0.0 0.00 0.00 0.00 39 1009.6
20260504172018 85 315 0.0 0.0 0.00 0.00 0.00 39 1009.6
20260504171431 85 270 0.0 0.0 0.00 0.00 0.00 39 1009.6
20260504170844 85 270 0.0 0.0 0.00 0.00 0.00 39 1009.7
20260504170257 85 225 0.0 0.0 0.00 0.00 0.00 39 1009.7
20260504150716 87 180 0.0 1.0 0.00 0.00 0.00 35 1010.5
20260504150129 87 225 0.0 2.0 0.00 0.00 0.00 35 1010.6
20260504140926 88 270 0.0 0.0 0.00 0.00 0.00 33 1010.2
20260504140339 88 270 0.0 1.0 0.00 0.00 0.00 33 1010.1
20260504130549 89 315 0.0 0.0 0.00 0.00 0.00 31 1009.7
20260504120211 90 225 0.0 1.0 0.00 0.00 0.00 28 1010.1
20260504110421 92 90 0.0 2.0 0.00 0.00 0.00 27 1010.0